TimeEST,TemperatureF,Dew PointF,Humidity,Sea Level PressureIn,VisibilityMPH,Wind Direction,Wind SpeedMPH,Gust SpeedMPH,PrecipitationIn,Events,Conditions,WindDirDegrees,DateUTC
12:51 AM,33.1,18.0,54,30.05,10.0,West,9.2,-,N/A,,Partly Cloudy,260,2013-01-04 05:51:00
1:51 AM,30.9,18.0,59,30.06,10.0,WSW,6.9,-,N/A,,Clear,240,2013-01-04 06:51:00
2:51 AM,30.9,19.0,61,30.06,10.0,West,5.8,-,N/A,,Clear,260,2013-01-04 07:51:00
3:51 AM,30.2,19.4,64,30.05,10.0,WSW,8.1,-,N/A,,Clear,250,2013-01-04 08:51:00
4:51 AM,33.1,21.0,61,30.06,10.0,WSW,8.1,-,N/A,,Mostly Cloudy,250,2013-01-04 09:51:00
5:51 AM,32.0,21.0,64,30.06,10.0,SW,6.9,-,N/A,,Overcast,220,2013-01-04 10:51:00
6:51 AM,33.8,21.2,60,30.06,10.0,SW,10.4,-,N/A,,Overcast,230,2013-01-04 11:51:00
7:51 AM,34.0,21.9,61,30.07,10.0,SW,10.4,-,N/A,,Overcast,230,2013-01-04 12:51:00
8:51 AM,34.0,23.0,64,30.08,10.0,WSW,10.4,-,N/A,,Overcast,250,2013-01-04 13:51:00
9:51 AM,35.1,23.0,61,30.08,10.0,WSW,9.2,-,N/A,,Overcast,240,2013-01-04 14:51:00
10:51 AM,36.0,21.0,55,30.06,10.0,West,13.8,20.7,N/A,,Scattered Clouds,280,2013-01-04 15:51:00
11:51 AM,36.0,21.0,55,30.02,10.0,West,12.7,24.2,N/A,,Mostly Cloudy,270,2013-01-04 16:51:00
12:51 PM,37.0,19.9,50,29.98,10.0,West,16.1,21.9,N/A,,Partly Cloudy,270,2013-01-04 17:51:00
1:51 PM,37.9,19.9,48,29.96,10.0,West,18.4,25.3,N/A,,Partly Cloudy,270,2013-01-04 18:51:00
2:51 PM,37.4,21.2,52,29.95,10.0,West,11.5,-,N/A,,Clear,260,2013-01-04 19:51:00
3:51 PM,37.0,21.0,52,29.95,10.0,WSW,11.5,-,N/A,,Clear,240,2013-01-04 20:51:00
4:51 PM,36.0,21.0,55,29.96,10.0,WSW,10.4,-,N/A,,Clear,240,2013-01-04 21:51:00
5:51 PM,36.0,19.9,52,29.97,10.0,WSW,11.5,-,N/A,,Clear,240,2013-01-04 22:51:00
6:51 PM,35.1,21.0,57,29.97,10.0,WSW,11.5,19.6,N/A,,Clear,240,2013-01-04 23:51:00
7:51 PM,35.1,21.0,57,29.97,10.0,West,11.5,-,N/A,,Clear,260,2013-01-05 00:51:00
8:51 PM,35.1,21.0,57,29.97,10.0,West,10.4,-,N/A,,Clear,270,2013-01-05 01:51:00
9:51 PM,34.0,19.9,56,29.98,10.0,West,6.9,-,N/A,,Clear,260,2013-01-05 02:51:00
10:51 PM,33.1,19.9,59,30.00,10.0,WSW,6.9,-,N/A,,Clear,240,2013-01-05 03:51:00
11:51 PM,32.0,19.0,59,30.01,10.0,WSW,5.8,-,N/A,,Clear,240,2013-01-05 04:51:00